Location: Veytaux
(46.4185°N, 6.9320°E)
Time: 07:35:49
(UTC+00:00)

Cosmos 2228 - Pass Details

Date: 27 May 2022
Orbit: 586 x 617 km, 82.5° (Epoch: 01 July)

Event Time Altitude Azimuth Distance (km) Brightness Sun altitude
Rises 02:08:27 0° 349° (NNW) 2,892 7.1 -13.4°
Reaches altitude 10° 02:10:41 10° 347° (NNW) 1,978 6.2 -13.1°
Maximum altitude 02:15:03 73° 264° (W) 639 3.0 -12.6°
Enters shadow 02:19:17 10° 180° (S) 1,919 5.1 -12.2°
